This is the latest recevied weather packets stored in our database for station/object DH9NFM-12. If no packets are shown the sender has not sent any weather packets the latest 10 day(s).
| Time | Temp. | Humidity | Pressure | Rain* | Wind** | Luminosity | Snow |
|---|---|---|---|---|---|---|---|
| 1777740809 | 21.11° C | 39% | 1016.8 hPa | 0 mm | - | - | - |
| 1777740185 | 21.11° C | 40% | 1016.9 hPa | 0 mm | - | - | - |
| 1777739560 | 21.11° C | 39% | 1017.1 hPa | 0 mm | - | - | - |
| 1777738935 | 21.67° C | 38% | 1017.1 hPa | 0 mm | - | - | - |
| 1777738311 | 21.67° C | 38% | 1017.3 hPa | 0 mm | - | - | - |
| 1777737686 | 22.22° C | 37% | 1017.4 hPa | 0 mm | - | - | - |
| 1777737062 | 21.67° C | 37% | 1017.4 hPa | 0 mm | - | - | - |
| 1777736437 | 21.67° C | 39% | 1017.5 hPa | 0 mm | - | - | - |
| 1777735812 | 21.67° C | 36% | 1017.5 hPa | 0 mm | - | - | - |
| 1777735187 | 21.67° C | 40% | 1017.7 hPa | 0 mm | - | - | - |
| 1777734563 | 21.67° C | 37% | 1017.7 hPa | 0 mm | - | - | - |
| 1777733938 | 22.78° C | 38% | 1017.8 hPa | 0 mm | - | - | - |
| 1777733314 | 22.22° C | 39% | 1018.1 hPa | 0 mm | - | - | - |
| 1777732689 | 21.67° C | 39% | 1018.1 hPa | 0 mm | - | - | - |
| 1777732064 | 21.67° C | 39% | 1018.3 hPa | 0 mm | - | - | - |
| 1777731440 | 22.22° C | 37% | 1018.4 hPa | 0 mm | - | - | - |
| 1777730190 | 22.78° C | 37% | 1018.6 hPa | 0 mm | - | - | - |
| 1777729566 | 23.33° C | 36% | 1018.7 hPa | 0 mm | - | - | - |
| 1777728941 | 22.78° C | 36% | 1018.8 hPa | 0 mm | - | - | - |
| 1777728317 | 22.78° C | 38% | 1019 hPa | 0 mm | - | - | - |
| 1777727692 | 22.22° C | 38% | 1019.2 hPa | 0 mm | - | - | - |
| 1777727067 | 21.67° C | 39% | 1019.2 hPa | 0 mm | - | - | - |
| 1777726443 | 21.67° C | 41% | 1019.4 hPa | 0 mm | - | - | - |
| 1777725818 | 21.67° C | 39% | 1019.5 hPa | 0 mm | - | - | - |
| 1777725193 | 21.11° C | 44% | 1019.6 hPa | 0 mm | - | - | - |
* Rain latest hour (hover to see other rain measurements)
** Current wind speed in m/s (hover to see current wind gust speed)